2022/05/02 23:32:03+0000,-35.63,-44.41,-32.27,-51.66,-52.84,-54.07
2022/05/02 23:32:55+0000,-33.67,-43.58,-32.36,-49.72,-53.34,-54.25
2022/05/02 23:33:47+0000,-35.53,-44.66,-31.81,-50.85,-53.30,-53.98
2022/05/02 23:34:39+0000,-33.43,-44.41,-32.88,-49.94,-52.73,-54.10
2022/05/02 23:35:31+0000,-34.03,-45.41,-32.85,-49.67,-52.28,-53.72
2022/05/02 23:36:23+0000,-32.99,-45.50,-32.72,-47.57,-53.09,-53.80
2022/05/02 23:37:15+0000,-34.56,-43.38,-32.33,-51.21,-53.87,-54.26
2022/05/02 23:38:07+0000,-35.35,-45.66,-32.14,-51.33,-53.06,-53.72
2022/05/02 23:39:00+0000,-35.19,-42.80,-31.80,-48.16,-52.64,-53.40
2022/05/02 23:39:52+0000,-34.83,-42.89,-33.10,-47.62,-53.24,-54.39
2022/05/02 23:40:44+0000,-35.50,-43.96,-32.61,-49.11,-52.79,-53.66
2022/05/02 23:41:44+0000,-35.33,-42.27,-32.60,-48.96,-52.38,-54.09
2022/05/02 23:42:36+0000,-34.86,-43.95,-31.95,-50.79,-52.83,-54.18
2022/05/02 23:43:28+0000,-35.87,-43.56,-32.55,-50.08,-53.40,-53.83
2022/05/02 23:44:20+0000,-34.57,-43.47,-32.25,-51.64,-53.02,-54.45
2022/05/02 23:45:12+0000,-33.46,-43.11,-32.74,-48.25,-51.90,-54.57
2022/05/02 23:46:04+0000,-33.91,-44.10,-32.12,-51.04,-53.29,-54.32
2022/05/02 23:46:57+0000,-34.88,-44.03,-33.03,-48.99,-53.66,-54.71
2022/05/02 23:47:49+0000,-35.39,-44.30,-32.77,-51.31,-52.04,-54.25
2022/05/02 23:48:41+0000,-34.88,-44.52,-32.97,-50.66,-53.73,-54.35
2022/05/02 23:49:33+0000,-35.34,-42.94,-32.22,-50.17,-52.10,-54.01
2022/05/02 23:50:25+0000,-35.38,-44.06,-32.41,-49.22,-52.90,-54.35
2022/05/02 23:51:25+0000,-35.48,-45.24,-32.20,-49.89,-53.14,-54.45
2022/05/02 23:52:17+0000,-34.84,-43.56,-32.16,-49.76,-53.06,-54.13
2022/05/02 23:53:09+0000,-34.86,-45.63,-32.07,-48.76,-52.17,-54.38
2022/05/02 23:54:01+0000,-33.64,-46.56,-32.06,-47.17,-52.36,-54.58
2022/05/02 23:54:53+0000,-35.21,-46.76,-32.26,-47.43,-52.90,-54.25
2022/05/02 23:55:45+0000,-35.45,-46.82,-32.14,-47.41,-52.40,-54.53
2022/05/02 23:56:37+0000,-35.63,-46.00,-31.65,-48.02,-51.93,-54.90
2022/05/02 23:57:29+0000,-34.46,-45.94,-32.54,-47.09,-51.88,-54.38
2022/05/02 23:58:21+0000,-35.35,-44.15,-31.83,-51.58,-52.24,-54.51
2022/05/02 23:59:13+0000,-35.41,-45.95,-31.70,-48.91,-52.65,-54.24
2022/05/03 00:00:06+0000,-33.52,-45.06,-32.12,-51.08,-52.75,-54.27
2022/05/03 00:01:10+0000,-35.43,-44.93,-32.23,-49.65,-53.06,-54.16
2022/05/03 00:02:02+0000,-34.68,-45.29,-31.80,-51.73,-52.97,-54.01
2022/05/03 00:02:54+0000,-33.06,-47.06,-31.34,-50.45,-53.59,-53.99
2022/05/03 00:03:46+0000,-34.44,-47.00,-31.70,-48.93,-53.69,-54.66
2022/05/03 00:04:38+0000,-33.54,-45.53,-32.00,-47.39,-53.17,-54.30
2022/05/03 00:05:30+0000,-33.85,-46.27,-31.80,-47.76,-52.55,-53.51
2022/05/03 00:06:23+0000,-35.13,-45.18,-31.79,-47.95,-53.47,-54.26
2022/05/03 00:07:15+0000,-35.16,-44.58,-31.71,-47.61,-52.70,-54.46
2022/05/03 00:08:07+0000,-36.04,-46.27,-31.43,-49.00,-52.71,-54.22
2022/05/03 00:08:59+0000,-34.17,-44.88,-31.00,-49.57,-52.40,-54.14
2022/05/03 00:09:51+0000,-34.75,-46.21,-31.91,-49.02,-51.71,-54.15
2022/05/03 00:10:43+0000,-34.83,-42.67,-32.40,-48.84,-52.36,-54.07
2022/05/03 00:11:48+0000,-33.94,-45.08,-31.90,-49.62,-53.84,-54.06
2022/05/03 00:12:40+0000,-34.43,-45.34,-31.00,-49.19,-53.32,-53.93
2022/05/03 00:13:32+0000,-34.41,-45.80,-31.12,-50.38,-53.20,-54.06
2022/05/03 00:14:24+0000,-35.91,-45.19,-31.96,-50.16,-53.75,-53.67
2022/05/03 00:15:16+0000,-34.85,-45.91,-31.95,-46.57,-52.78,-54.03
2022/05/03 00:16:09+0000,-33.37,-44.64,-31.28,-49.26,-53.52,-53.96
2022/05/03 00:17:01+0000,-34.14,-45.99,-31.13,-49.86,-53.35,-54.98
2022/05/03 00:17:53+0000,-34.82,-46.06,-32.17,-50.18,-52.98,-54.03
2022/05/03 00:18:45+0000,-34.26,-45.75,-31.76,-48.48,-52.91,-54.64
2022/05/03 00:19:37+0000,-35.16,-46.73,-32.08,-46.93,-51.90,-54.39
2022/05/03 00:20:29+0000,-35.43,-46.85,-31.79,-49.39,-52.26,-54.43
2022/05/03 00:21:29+0000,-35.88,-45.71,-31.74,-49.30,-52.75,-54.29
2022/05/03 00:22:21+0000,-35.32,-46.71,-32.28,-48.64,-53.26,-54.26
2022/05/03 00:23:13+0000,-34.22,-46.36,-31.33,-49.23,-52.27,-54.14
2022/05/03 00:24:05+0000,-34.60,-46.32,-31.73,-49.88,-52.49,-53.99
2022/05/03 00:24:57+0000,-35.18,-44.29,-31.61,-49.87,-52.61,-54.42
2022/05/03 00:25:49+0000,-35.28,-47.88,-31.90,-50.63,-52.91,-54.38
2022/05/03 00:26:42+0000,-35.68,-47.62,-31.80,-50.14,-52.55,-54.46
2022/05/03 00:27:34+0000,-34.76,-47.41,-31.56,-50.96,-52.46,-53.72
2022/05/03 00:28:26+0000,-34.54,-46.19,-31.79,-49.71,-53.64,-54.04
2022/05/03 00:29:18+0000,-35.26,-47.83,-31.46,-50.85,-52.88,-54.58
2022/05/03 00:30:10+0000,-33.94,-46.54,-32.20,-49.90,-54.05,-54.25
2022/05/03 00:31:11+0000,-34.33,-45.64,-31.56,-49.72,-53.21,-54.48
2022/05/03 00:32:03+0000,-33.78,-47.55,-31.77,-50.53,-53.29,-54.39
2022/05/03 00:32:55+0000,-34.75,-46.50,-31.38,-49.42,-53.01,-54.20
2022/05/03 00:33:47+0000,-34.39,-47.23,-31.53,-48.66,-52.36,-54.53
2022/05/03 00:34:39+0000,-33.96,-47.95,-31.37,-49.01,-52.63,-54.12
2022/05/03 00:35:31+0000,-33.99,-46.61,-31.32,-48.44,-51.89,-54.46
2022/05/03 00:36:23+0000,-35.32,-46.09,-31.57,-49.65,-52.01,-54.08
2022/05/03 00:37:15+0000,-33.77,-47.11,-31.04,-48.89,-52.79,-54.44
2022/05/03 00:38:07+0000,-34.20,-46.74,-31.75,-49.77,-52.43,-54.63
2022/05/03 00:38:59+0000,-34.59,-46.47,-31.47,-48.70,-51.67,-54.53
2022/05/03 00:39:52+0000,-35.04,-46.06,-31.63,-49.95,-51.83,-54.23
2022/05/03 00:40:44+0000,-35.19,-46.61,-31.68,-48.91,-52.00,-54.23
2022/05/03 00:41:42+0000,-35.45,-44.46,-31.21,-49.18,-53.32,-54.02
2022/05/03 00:42:34+0000,-34.64,-47.21,-31.45,-50.27,-50.11,-54.59
2022/05/03 00:43:26+0000,-33.88,-46.20,-31.79,-50.36,-53.16,-54.34
2022/05/03 00:44:18+0000,-33.74,-44.79,-31.49,-49.59,-52.36,-54.15
2022/05/03 00:45:10+0000,-32.89,-43.97,-31.53,-48.52,-53.19,-54.52
2022/05/03 00:46:02+0000,-34.36,-45.11,-31.78,-49.05,-51.63,-54.10
2022/05/03 00:46:54+0000,-34.39,-45.01,-31.73,-49.60,-52.22,-54.02
2022/05/03 00:47:46+0000,-35.26,-45.05,-32.01,-49.57,-53.04,-54.64
2022/05/03 00:48:38+0000,-34.53,-46.92,-32.37,-49.00,-51.15,-54.87
2022/05/03 00:49:30+0000,-35.00,-46.07,-31.77,-49.27,-51.31,-55.45
2022/05/03 00:50:23+0000,-33.58,-45.83,-31.13,-50.08,-52.83,-55.06
2022/05/03 00:51:21+0000,-33.85,-45.47,-32.25,-49.53,-53.32,-55.04
2022/05/03 00:52:13+0000,-34.59,-46.20,-31.62,-49.47,-51.99,-54.93
2022/05/03 00:53:05+0000,-32.30,-44.95,-31.80,-51.71,-52.31,-54.90
2022/05/03 00:53:58+0000,-34.73,-46.59,-31.43,-49.67,-50.08,-54.78
2022/05/03 00:54:50+0000,-34.05,-46.37,-31.54,-51.85,-52.56,-54.78
2022/05/03 00:55:42+0000,-33.97,-46.69,-31.77,-49.52,-53.00,-55.52
2022/05/03 00:56:34+0000,-34.51,-45.45,-32.22,-49.49,-49.00,-54.60
2022/05/03 00:57:26+0000,-35.42,-46.68,-31.43,-50.32,-53.16,-55.06
2022/05/03 00:58:18+0000,-34.24,-46.25,-32.22,-48.43,-53.15,-55.53
2022/05/03 00:59:10+0000,-34.55,-44.81,-31.73,-49.01,-49.69,-54.96
2022/05/03 01:00:02+0000,-33.63,-44.75,-31.62,-50.20,-50.39,-54.90
2022/05/03 01:01:06+0000,-36.05,-45.22,-32.27,-49.38,-50.14,-54.63
2022/05/03 01:01:58+0000,-35.58,-45.04,-32.33,-49.31,-50.06,-55.45
2022/05/03 01:02:50+0000,-34.47,-44.75,-31.78,-49.89,-51.53,-54.89
2022/05/03 01:03:42+0000,-36.15,-43.71,-31.91,-48.30,-50.22,-54.53
2022/05/03 01:04:34+0000,-34.41,-46.82,-31.48,-49.07,-48.89,-55.02
2022/05/03 01:05:26+0000,-35.07,-44.72,-31.86,-48.63,-50.26,-54.56
2022/05/03 01:06:18+0000,-34.95,-46.76,-32.57,-51.48,-52.03,-55.10
2022/05/03 01:07:10+0000,-35.21,-45.46,-31.50,-49.27,-52.65,-54.65
2022/05/03 01:08:02+0000,-34.97,-47.20,-32.20,-51.66,-50.01,-54.34
2022/05/03 01:08:54+0000,-35.30,-45.27,-31.49,-50.12,-53.22,-55.30
2022/05/03 01:09:47+0000,-33.79,-46.11,-32.24,-48.72,-52.82,-54.98
2022/05/03 01:10:39+0000,-34.04,-46.14,-32.30,-48.92,-52.24,-55.15
2022/05/03 01:11:38+0000,-34.75,-46.51,-32.04,-48.13,-51.35,-54.63
2022/05/03 01:12:30+0000,-34.88,-46.05,-31.83,-48.55,-50.65,-55.02
2022/05/03 01:13:22+0000,-35.03,-45.93,-31.71,-49.60,-52.63,-55.17
2022/05/03 01:14:14+0000,-34.35,-45.24,-32.23,-48.26,-51.77,-54.76
2022/05/03 01:15:06+0000,-35.79,-45.07,-31.73,-49.65,-49.89,-54.93
2022/05/03 01:15:58+0000,-34.52,-45.55,-31.82,-48.74,-53.16,-54.89
2022/05/03 01:16:50+0000,-35.61,-45.80,-32.27,-51.31,-52.37,-54.79
2022/05/03 01:17:42+0000,-34.23,-43.80,-32.34,-49.81,-52.51,-54.67
2022/05/03 01:18:34+0000,-35.00,-46.58,-31.43,-50.67,-50.55,-54.69
2022/05/03 01:19:26+0000,-34.78,-45.70,-32.31,-49.13,-51.19,-55.29
2022/05/03 01:20:18+0000,-34.34,-43.19,-32.12,-50.46,-52.50,-54.75
2022/05/03 01:21:34+0000,-36.10,-45.46,-31.51,-50.13,-51.28,-55.18
2022/05/03 01:22:26+0000,-34.96,-45.12,-31.99,-48.47,-54.13,-55.21
2022/05/03 01:23:18+0000,-35.81,-46.26,-31.97,-49.39,-53.71,-55.04
2022/05/03 01:24:10+0000,-35.49,-46.30,-32.01,-48.41,-53.38,-55.05
2022/05/03 01:25:02+0000,-33.29,-45.92,-32.49,-48.19,-51.07,-54.58
2022/05/03 01:25:54+0000,-35.00,-45.87,-31.82,-46.61,-52.75,-54.84
2022/05/03 01:26:46+0000,-35.94,-45.44,-32.01,-48.76,-52.71,-54.40
2022/05/03 01:27:38+0000,-35.12,-44.74,-30.92,-48.95,-53.01,-55.40
2022/05/03 01:28:30+0000,-35.30,-45.50,-32.16,-46.87,-53.08,-54.28
2022/05/03 01:29:22+0000,-34.11,-44.71,-32.02,-47.42,-53.26,-54.38
2022/05/03 01:30:14+0000,-36.03,-44.97,-31.90,-48.16,-53.38,-55.18
2022/05/03 01:31:13+0000,-32.54,-46.39,-32.29,-48.31,-52.24,-54.20
2022/05/03 01:32:05+0000,-35.30,-45.30,-31.80,-49.79,-50.63,-55.20
2022/05/03 01:32:57+0000,-34.02,-46.41,-32.04,-47.56,-50.54,-54.39
2022/05/03 01:33:49+0000,-35.01,-44.18,-31.90,-50.44,-51.33,-53.84
2022/05/03 01:34:41+0000,-33.70,-45.26,-32.05,-48.63,-53.78,-54.03
2022/05/03 01:35:33+0000,-34.79,-45.13,-32.24,-48.38,-50.84,-54.07
2022/05/03 01:36:25+0000,-33.75,-44.61,-32.30,-47.98,-53.31,-54.67
2022/05/03 01:37:17+0000,-35.48,-44.05,-32.28,-49.12,-52.09,-54.72
2022/05/03 01:38:09+0000,-35.83,-45.42,-31.92,-48.31,-50.77,-54.26
2022/05/03 01:39:01+0000,-33.63,-44.17,-32.23,-47.97,-50.43,-55.25
2022/05/03 01:39:53+0000,-35.24,-44.31,-32.23,-48.49,-52.64,-54.19
2022/05/03 01:40:45+0000,-33.11,-45.05,-31.84,-48.56,-52.41,-54.06
2022/05/03 01:41:44+0000,-35.28,-44.80,-32.21,-49.65,-52.09,-54.63
2022/05/03 01:42:36+0000,-33.77,-44.41,-31.86,-50.14,-51.24,-54.71
2022/05/03 01:43:28+0000,-33.40,-45.73,-31.55,-47.35,-50.94,-54.70
2022/05/03 01:44:20+0000,-35.83,-43.57,-32.42,-50.66,-52.18,-54.87
2022/05/03 01:45:12+0000,-34.17,-44.46,-32.50,-47.57,-53.98,-54.76
2022/05/03 01:46:04+0000,-34.04,-43.28,-31.69,-49.57,-50.45,-54.43
2022/05/03 01:46:56+0000,-34.49,-44.28,-31.91,-47.64,-53.25,-55.18
2022/05/03 01:47:48+0000,-33.10,-42.08,-31.83,-47.58,-50.08,-55.04
2022/05/03 01:48:40+0000,-35.05,-43.43,-32.11,-47.09,-53.55,-54.31
2022/05/03 01:49:32+0000,-35.99,-44.64,-31.87,-46.23,-50.90,-54.38
2022/05/03 01:50:24+0000,-34.36,-43.97,-32.02,-47.97,-52.44,-54.43
2022/05/03 01:51:23+0000,-34.50,-43.46,-31.79,-47.76,-51.99,-54.70
2022/05/03 01:52:15+0000,-33.95,-45.50,-32.33,-48.00,-52.16,-54.46
2022/05/03 01:53:07+0000,-35.21,-44.51,-31.70,-49.33,-51.16,-54.36
2022/05/03 01:53:59+0000,-34.92,-44.32,-31.92,-47.90,-51.05,-54.24
2022/05/03 01:54:51+0000,-34.51,-43.12,-31.96,-51.08,-52.30,-54.89
2022/05/03 01:55:43+0000,-33.69,-44.15,-32.07,-49.20,-52.99,-54.75
2022/05/03 01:56:35+0000,-34.51,-43.59,-31.98,-50.30,-51.03,-55.03
2022/05/03 01:57:27+0000,-36.17,-44.00,-31.68,-48.46,-53.72,-54.62
2022/05/03 01:58:19+0000,-35.73,-42.88,-31.94,-49.83,-52.83,-53.83
2022/05/03 01:59:11+0000,-35.17,-42.61,-32.19,-48.56,-52.93,-54.60
2022/05/03 02:00:03+0000,-35.36,-40.37,-32.09,-48.58,-50.76,-54.47
2022/05/03 02:01:03+0000,-34.55,-43.36,-32.43,-50.80,-50.87,-54.87
2022/05/03 02:01:55+0000,-34.76,-45.10,-32.23,-48.02,-53.62,-53.70
2022/05/03 02:02:47+0000,-34.02,-46.47,-31.51,-49.32,-52.00,-54.17
2022/05/03 02:03:39+0000,-34.18,-45.41,-31.77,-47.77,-53.10,-54.05
2022/05/03 02:04:31+0000,-34.50,-45.98,-31.53,-48.28,-50.61,-54.04
2022/05/03 02:05:23+0000,-34.06,-46.61,-32.43,-47.91,-51.97,-53.50
2022/05/03 02:06:15+0000,-35.18,-45.56,-32.07,-48.48,-52.42,-54.54
2022/05/03 02:07:07+0000,-34.63,-47.07,-31.87,-48.84,-51.18,-53.87
2022/05/03 02:07:59+0000,-35.92,-46.10,-31.55,-48.18,-50.75,-54.24
2022/05/03 02:08:51+0000,-34.23,-46.57,-31.46,-48.53,-52.80,-54.28
2022/05/03 02:09:43+0000,-35.15,-45.38,-31.42,-48.96,-51.43,-54.18
2022/05/03 02:10:35+0000,-34.63,-44.65,-31.30,-48.64,-53.11,-54.23
2022/05/03 02:11:36+0000,-35.09,-45.84,-31.94,-48.25,-52.25,-53.63
2022/05/03 02:12:28+0000,-35.43,-45.87,-31.73,-47.18,-51.80,-53.70
2022/05/03 02:13:20+0000,-34.43,-44.75,-32.05,-49.93,-52.38,-54.05
2022/05/03 02:14:12+0000,-35.34,-46.21,-31.52,-48.41,-51.66,-54.04
2022/05/03 02:15:04+0000,-35.30,-45.78,-31.82,-50.96,-52.52,-54.32
2022/05/03 02:15:56+0000,-36.03,-46.45,-31.86,-47.99,-53.20,-53.54
2022/05/03 02:16:48+0000,-35.47,-45.63,-31.90,-49.48,-51.56,-54.23
2022/05/03 02:17:40+0000,-34.40,-44.89,-32.14,-48.70,-53.20,-53.72
2022/05/03 02:18:32+0000,-35.40,-44.62,-31.40,-48.97,-52.91,-54.04
2022/05/03 02:19:24+0000,-32.26,-44.70,-31.79,-47.90,-52.49,-53.46
2022/05/03 02:20:16+0000,-34.36,-45.15,-31.45,-49.37,-51.24,-53.29
2022/05/03 02:21:15+0000,-34.29,-43.69,-32.20,-48.56,-52.53,-53.18
2022/05/03 02:22:07+0000,-34.26,-45.51,-31.63,-48.55,-52.16,-54.04
2022/05/03 02:22:59+0000,-34.76,-44.64,-31.28,-47.36,-52.19,-52.85
2022/05/03 02:23:51+0000,-35.30,-46.22,-31.27,-48.40,-53.58,-53.72
2022/05/03 02:24:43+0000,-34.55,-45.95,-32.15,-48.18,-52.72,-53.83
2022/05/03 02:25:35+0000,-34.69,-44.74,-31.50,-50.98,-52.68,-54.20
2022/05/03 02:26:27+0000,-33.69,-45.43,-31.68,-48.95,-52.77,-53.56
2022/05/03 02:27:19+0000,-34.82,-44.51,-32.01,-49.61,-49.32,-52.77
2022/05/03 02:28:11+0000,-35.10,-41.77,-31.14,-47.49,-48.92,-52.73
2022/05/03 02:29:03+0000,-34.75,-45.67,-31.92,-49.58,-49.30,-52.35
2022/05/03 02:29:55+0000,-34.11,-43.60,-32.27,-44.20,-49.63,-52.58
2022/05/03 02:30:47+0000,-35.61,-44.85,-32.00,-47.53,-48.63,-53.63
2022/05/03 02:31:48+0000,-33.87,-44.74,-31.70,-50.01,-48.58,-53.11
2022/05/03 02:32:40+0000,-34.75,-45.43,-33.00,-47.00,-49.94,-52.78
2022/05/03 02:33:32+0000,-34.88,-43.24,-31.91,-47.51,-49.03,-53.14
2022/05/03 02:34:24+0000,-35.45,-44.92,-32.25,-47.71,-48.48,-52.71
2022/05/03 02:35:16+0000,-34.91,-45.45,-31.98,-47.79,-48.72,-53.03
2022/05/03 02:36:08+0000,-35.40,-44.73,-32.03,-47.02,-48.38,-52.87
2022/05/03 02:37:00+0000,-34.32,-44.75,-32.94,-47.66,-47.08,-53.31
2022/05/03 02:37:52+0000,-34.18,-46.21,-32.30,-45.63,-49.02,-52.59
2022/05/03 02:38:44+0000,-34.62,-45.04,-32.40,-47.28,-48.61,-53.22
2022/05/03 02:39:36+0000,-35.55,-46.27,-32.22,-46.86,-46.75,-53.46
2022/05/03 02:40:29+0000,-35.05,-45.36,-32.59,-48.01,-47.01,-53.04
2022/05/03 02:41:27+0000,-35.71,-45.70,-31.71,-48.39,-48.97,-53.51
2022/05/03 02:42:19+0000,-34.53,-44.83,-32.02,-48.14,-49.32,-52.94
2022/05/03 02:43:11+0000,-33.68,-46.81,-32.00,-47.47,-49.56,-53.17
2022/05/03 02:44:03+0000,-34.27,-42.19,-32.30,-46.73,-47.42,-52.78
2022/05/03 02:44:55+0000,-34.86,-44.88,-31.98,-47.84,-49.27,-53.02
2022/05/03 02:45:47+0000,-34.62,-44.86,-32.01,-45.63,-49.14,-52.94
2022/05/03 02:46:39+0000,-35.32,-45.65,-32.09,-45.00,-47.52,-52.85
2022/05/03 02:47:31+0000,-35.32,-44.85,-32.61,-48.65,-47.67,-52.73
2022/05/03 02:48:23+0000,-34.82,-45.18,-32.23,-47.14,-47.94,-53.13
2022/05/03 02:49:15+0000,-35.44,-44.77,-32.33,-47.60,-48.25,-53.49
2022/05/03 02:50:07+0000,-33.51,-45.78,-32.43,-46.30,-47.37,-52.92
2022/05/03 02:51:06+0000,-33.66,-43.21,-32.33,-49.96,-47.35,-53.14
2022/05/03 02:51:58+0000,-34.73,-43.31,-32.69,-47.06,-47.33,-53.06
2022/05/03 02:52:50+0000,-34.64,-44.35,-32.39,-49.39,-48.51,-52.77
2022/05/03 02:53:42+0000,-35.08,-44.53,-32.74,-44.18,-49.71,-53.02
2022/05/03 02:54:34+0000,-35.03,-42.72,-32.46,-50.04,-48.63,-52.75
2022/05/03 02:55:26+0000,-34.56,-44.27,-32.17,-47.14,-49.06,-52.98
2022/05/03 02:56:18+0000,-34.78,-44.74,-32.37,-43.74,-49.34,-52.63
2022/05/03 02:57:10+0000,-34.45,-43.89,-32.14,-46.17,-47.55,-52.32
2022/05/03 02:58:02+0000,-34.36,-44.30,-31.95,-48.06,-46.81,-53.06
2022/05/03 02:58:54+0000,-34.24,-43.39,-32.58,-46.78,-48.73,-52.61
2022/05/03 02:59:47+0000,-33.66,-44.37,-31.92,-47.63,-48.15,-53.02
2022/05/03 03:00:39+0000,-34.20,-44.67,-31.49,-45.82,-47.35,-52.93
2022/05/03 03:01:38+0000,-34.71,-43.67,-32.32,-46.54,-47.93,-52.71
2022/05/03 03:02:30+0000,-34.81,-42.61,-32.63,-47.47,-47.60,-52.75
2022/05/03 03:03:22+0000,-33.38,-43.59,-31.89,-46.56,-48.72,-52.51
2022/05/03 03:04:14+0000,-33.22,-43.98,-31.44,-48.36,-48.90,-52.84
2022/05/03 03:05:06+0000,-33.20,-43.34,-32.02,-47.36,-47.15,-52.78
2022/05/03 03:05:58+0000,-34.17,-44.43,-32.02,-45.07,-47.28,-52.65
2022/05/03 03:06:50+0000,-34.98,-47.05,-31.92,-42.50,-49.21,-52.74
2022/05/03 03:07:43+0000,-34.26,-44.56,-32.73,-47.84,-49.40,-52.61
2022/05/03 03:08:35+0000,-34.67,-45.28,-31.94,-44.51,-48.90,-53.00
2022/05/03 03:09:27+0000,-34.72,-43.55,-32.42,-47.22,-48.00,-52.22
2022/05/03 03:10:19+0000,-35.02,-42.65,-31.34,-49.50,-48.48,-52.37
2022/05/03 03:11:19+0000,-34.89,-42.96,-31.64,-49.45,-48.34,-52.30
2022/05/03 03:12:11+0000,-33.71,-42.33,-32.01,-47.05,-48.16,-52.54
2022/05/03 03:13:03+0000,-36.29,-43.11,-31.71,-49.69,-47.06,-52.45
2022/05/03 03:13:55+0000,-32.79,-43.58,-32.16,-46.14,-48.24,-52.59
2022/05/03 03:14:47+0000,-35.00,-43.43,-32.48,-49.21,-48.07,-52.54
2022/05/03 03:15:39+0000,-34.96,-43.53,-31.74,-45.92,-48.95,-52.53
2022/05/03 03:16:31+0000,-35.72,-40.92,-31.59,-46.28,-47.54,-52.08
2022/05/03 03:17:23+0000,-35.12,-40.39,-32.28,-46.41,-47.87,-52.39
2022/05/03 03:18:15+0000,-34.86,-40.80,-31.96,-47.45,-47.67,-52.73
2022/05/03 03:19:07+0000,-34.94,-41.81,-32.06,-47.89,-46.98,-52.44
2022/05/03 03:20:00+0000,-34.71,-39.39,-32.24,-44.08,-47.49,-52.36
2022/05/03 03:21:00+0000,-35.00,-39.52,-31.97,-43.81,-47.22,-52.07
2022/05/03 03:21:52+0000,-33.24,-41.26,-31.79,-46.52,-48.25,-52.56
2022/05/03 03:22:44+0000,-36.11,-39.75,-32.25,-46.87,-48.13,-52.00
2022/05/03 03:23:36+0000,-35.20,-41.26,-31.66,-45.60,-47.87,-52.67
2022/05/03 03:24:28+0000,-35.18,-40.66,-32.22,-47.42,-48.27,-52.33
2022/05/03 03:25:20+0000,-33.54,-41.09,-32.00,-48.27,-48.03,-52.65
2022/05/03 03:26:12+0000,-34.20,-41.16,-32.80,-48.24,-48.21,-52.42
2022/05/03 03:27:04+0000,-36.30,-39.57,-32.06,-49.60,-48.22,-52.28
2022/05/03 03:27:56+0000,-31.26,-39.52,-32.44,-47.98,-48.67,-52.28
2022/05/03 03:28:48+0000,-34.26,-40.79,-31.63,-50.48,-48.60,-53.21
2022/05/03 03:29:41+0000,-34.14,-41.44,-31.94,-47.88,-48.37,-52.81
2022/05/03 03:30:33+0000,-32.95,-41.18,-32.34,-48.33,-48.10,-53.21
2022/05/03 03:31:33+0000,-34.76,-42.33,-32.64,-49.96,-48.54,-53.07
2022/05/03 03:32:25+0000,-33.63,-42.75,-32.28,-47.03,-48.42,-53.16
2022/05/03 03:33:17+0000,-32.82,-41.97,-32.14,-47.02,-48.87,-53.00
2022/05/03 03:34:09+0000,-33.04,-41.35,-32.60,-47.26,-48.21,-52.67
2022/05/03 03:35:01+0000,-35.55,-41.28,-32.43,-49.09,-48.42,-52.45
2022/05/03 03:35:53+0000,-32.91,-41.09,-31.81,-47.99,-48.30,-52.25
2022/05/03 03:36:45+0000,-34.06,-42.20,-32.15,-47.55,-48.51,-53.12
2022/05/03 03:37:37+0000,-35.08,-42.00,-32.89,-46.89,-48.60,-52.30
2022/05/03 03:38:29+0000,-32.42,-42.11,-32.24,-46.86,-48.36,-52.86
2022/05/03 03:39:21+0000,-32.62,-42.28,-32.25,-46.54,-48.81,-53.01
2022/05/03 03:40:14+0000,-34.62,-41.63,-32.04,-47.32,-48.70,-52.42
2022/05/03 03:41:13+0000,-33.25,-42.64,-31.91,-45.79,-48.21,-53.09
2022/05/03 03:42:05+0000,-34.10,-41.56,-31.98,-49.99,-48.29,-53.04
2022/05/03 03:42:57+0000,-33.36,-41.40,-32.03,-48.10,-48.79,-52.92
2022/05/03 03:43:49+0000,-32.63,-43.38,-32.75,-49.88,-49.06,-51.96
2022/05/03 03:44:41+0000,-34.80,-41.93,-32.04,-46.54,-48.83,-53.08
2022/05/03 03:45:33+0000,-34.86,-41.32,-31.96,-50.22,-48.70,-52.17
2022/05/03 03:46:25+0000,-31.92,-42.32,-32.27,-47.34,-49.10,-52.74
2022/05/03 03:47:17+0000,-33.38,-42.33,-32.74,-46.64,-48.28,-53.32
2022/05/03 03:48:10+0000,-34.99,-43.00,-32.48,-48.04,-48.77,-52.78
2022/05/03 03:49:02+0000,-34.22,-41.80,-31.89,-48.02,-48.37,-52.78
2022/05/03 03:49:54+0000,-33.21,-42.93,-32.45,-46.49,-48.39,-52.84
2022/05/03 03:50:46+0000,-34.26,-41.75,-32.24,-48.16,-48.88,-53.08
2022/05/03 03:51:44+0000,-35.91,-41.47,-32.49,-47.66,-48.40,-53.53
2022/05/03 03:52:37+0000,-35.30,-42.84,-32.04,-48.44,-47.77,-52.14
2022/05/03 03:53:29+0000,-32.12,-42.88,-32.97,-48.59,-48.58,-52.52
2022/05/03 03:54:21+0000,-34.54,-43.40,-33.18,-49.81,-48.34,-53.16
2022/05/03 03:55:13+0000,-33.80,-43.28,-32.46,-47.72,-48.63,-52.91
2022/05/03 03:56:05+0000,-34.60,-42.82,-31.68,-50.32,-48.98,-52.91
2022/05/03 03:56:57+0000,-34.01,-41.75,-32.40,-45.55,-48.46,-52.99
2022/05/03 03:57:49+0000,-32.91,-42.94,-32.20,-48.17,-48.91,-52.71
2022/05/03 03:58:41+0000,-34.27,-41.60,-32.75,-46.96,-49.11,-52.53
2022/05/03 03:59:33+0000,-34.22,-42.74,-31.94,-45.91,-48.80,-52.47
2022/05/03 04:00:25+0000,-33.66,-43.76,-32.31,-45.18,-48.27,-52.59
2022/05/03 04:01:24+0000,-33.67,-42.92,-32.06,-42.78,-48.76,-52.34
2022/05/03 04:02:16+0000,-33.67,-42.12,-32.03,-48.19,-48.76,-52.84
2022/05/03 04:03:08+0000,-34.84,-42.79,-32.90,-46.74,-48.47,-52.49
2022/05/03 04:04:00+0000,-34.62,-41.22,-32.15,-47.13,-49.40,-52.73
2022/05/03 04:04:52+0000,-33.55,-42.40,-31.83,-47.20,-49.12,-53.21
2022/05/03 04:05:44+0000,-33.50,-41.83,-32.12,-46.75,-49.03,-52.81
2022/05/03 04:06:36+0000,-35.82,-42.99,-32.02,-47.13,-49.11,-52.76
2022/05/03 04:07:28+0000,-34.35,-42.88,-32.83,-45.79,-48.73,-52.79
2022/05/03 04:08:20+0000,-34.23,-43.49,-32.49,-43.62,-49.12,-52.36
2022/05/03 04:09:12+0000,-33.35,-41.41,-32.92,-46.12,-49.17,-52.51
2022/05/03 04:10:05+0000,-36.10,-43.08,-32.16,-48.53,-49.15,-53.08
2022/05/03 04:11:02+0000,-34.91,-41.16,-32.61,-49.31,-48.87,-52.72
2022/05/03 04:11:54+0000,-33.32,-42.32,-32.25,-47.65,-48.31,-52.76
2022/05/03 04:12:47+0000,-35.10,-40.67,-32.11,-46.74,-48.87,-53.03
2022/05/03 04:13:39+0000,-34.84,-42.59,-32.11,-45.38,-48.67,-52.59
2022/05/03 04:14:31+0000,-35.15,-40.18,-32.56,-47.38,-48.45,-52.74
2022/05/03 04:15:23+0000,-34.33,-41.69,-32.25,-47.06,-48.99,-52.59
2022/05/03 04:16:15+0000,-35.45,-40.38,-32.11,-46.68,-49.05,-52.92
2022/05/03 04:17:07+0000,-33.43,-42.03,-32.18,-45.92,-49.09,-52.34
2022/05/03 04:17:59+0000,-34.41,-40.15,-32.35,-47.25,-49.18,-52.28
2022/05/03 04:18:51+0000,-34.15,-40.30,-32.36,-46.19,-48.41,-53.09
2022/05/03 04:19:43+0000,-35.40,-40.12,-32.32,-47.71,-48.64,-52.54
2022/05/03 04:20:35+0000,-34.88,-40.96,-32.25,-48.85,-49.05,-52.78
2022/05/03 04:21:34+0000,-34.09,-41.05,-32.12,-50.41,-48.49,-53.14
2022/05/03 04:22:26+0000,-34.71,-41.42,-32.38,-48.16,-48.82,-52.91
2022/05/03 04:23:18+0000,-35.13,-41.13,-32.84,-49.31,-49.72,-52.96
2022/05/03 04:24:10+0000,-34.61,-43.41,-32.43,-48.30,-48.87,-52.49
2022/05/03 04:25:02+0000,-34.33,-42.11,-31.86,-47.57,-49.20,-53.09
2022/05/03 04:25:54+0000,-35.72,-41.65,-32.51,-45.83,-48.10,-53.04
2022/05/03 04:26:46+0000,-34.01,-41.30,-32.01,-49.27,-48.32,-52.72
2022/05/03 04:27:38+0000,-35.73,-40.91,-32.50,-48.57,-49.33,-52.99
2022/05/03 04:28:30+0000,-35.03,-41.51,-32.38,-46.56,-49.12,-52.82
2022/05/03 04:29:22+0000,-35.17,-40.41,-32.62,-45.81,-49.04,-53.15
2022/05/03 04:30:14+0000,-35.51,-42.70,-32.85,-48.71,-48.38,-53.54
2022/05/03 04:31:13+0000,-33.73,-40.88,-32.69,-47.79,-49.09,-53.44
2022/05/03 04:32:05+0000,-35.59,-42.82,-32.71,-49.44,-49.37,-53.13
2022/05/03 04:32:57+0000,-34.17,-43.71,-32.44,-46.63,-49.31,-53.02
2022/05/03 04:33:49+0000,-35.49,-41.42,-32.26,-49.96,-49.22,-53.21
2022/05/03 04:34:41+0000,-35.34,-44.14,-31.64,-48.82,-49.39,-52.72
2022/05/03 04:35:33+0000,-34.44,-42.87,-31.91,-46.85,-49.43,-53.00
2022/05/03 04:36:25+0000,-36.03,-41.94,-31.82,-46.39,-48.79,-52.86
2022/05/03 04:37:17+0000,-34.65,-43.42,-31.92,-48.17,-49.14,-52.62
2022/05/03 04:38:09+0000,-35.62,-42.24,-31.89,-48.28,-50.24,-52.90
2022/05/03 04:39:01+0000,-33.69,-42.68,-32.32,-46.45,-49.63,-52.95
2022/05/03 04:39:53+0000,-35.41,-42.66,-31.57,-46.85,-49.73,-52.54
2022/05/03 04:40:45+0000,-34.95,-43.01,-31.80,-48.47,-49.74,-52.77
2022/05/03 04:41:45+0000,-33.73,-42.92,-31.22,-47.46,-49.39,-52.82
2022/05/03 04:42:37+0000,-34.40,-43.04,-32.77,-48.42,-49.52,-52.84
2022/05/03 04:43:29+0000,-32.89,-42.34,-32.06,-45.42,-49.39,-52.80
2022/05/03 04:44:21+0000,-34.24,-43.65,-31.77,-47.81,-49.73,-52.36
2022/05/03 04:45:13+0000,-34.42,-41.11,-31.89,-48.50,-49.47,-52.29
2022/05/03 04:46:05+0000,-35.48,-43.96,-32.24,-50.35,-49.28,-52.61